Regional Weather Roundup
Issued by NWS

Home | Current Version | Previous Version | Graphics & Text | Print | Product List | Glossary On
Versions: 1 2 3 4 5 6 7 8 9 10 11 12 13 14 15 16 17 18 19 20 21 22 23 24 25 26 27
000
ASUS45 KSLC 202010
RWRUT

UTAH REGIONAL WEATHER ROUNDUP
NATIONAL WEATHER SERVICE SALT LAKE CITY UT
100 PM MST SAT JAN 20 2018

UTZ001>011-023>025-202100-

NORTHERN UTAH

CITY           SKY/WX    TMP DP  RH WIND       PRES   REMARKS
BRIGHAM CITY   CLOUDY    33  25  73 N8        29.88F WCI  26
HILL AFB       CLOUDY    30  26  85 N12       29.84F WCI  21
LOGAN          CLOUDY    31  26  82 CALM      29.88F
OGDEN          CLOUDY    31  25  78 NW12      29.84F WCI  22
SALT LAKE CITY LGT SNOW  34  27  75 NW16      29.86F WCI  24
TOOELE VALLEY  MIX PCPN  30  30 100 S5        29.90S WCI  25
WENDOVER       CLOUDY    35  20  54 NW20      29.93F WCI  24
HEBER CITY     LGT SNOW  28  23  80 N8        29.78F VSB 3/4 WCI  20
WEST JORDAN    CLOUDY    29  27  92 NW18      29.85F WCI  17

$$

UTZ011>015-024>027-202100-

CENTRAL/NORTHEAST UTAH

CITY           SKY/WX    TMP DP  RH WIND       PRES   REMARKS
PROVO AIRPORT  LGT SNOW  32  28  86 NW10      29.85F FOG     WCI  24
MOAB/CANYONLAN CLOUDY    51  32  48 S13       29.67F
DELTA          CLOUDY    30  28  93 N13       29.85S WCI  20
PRICE          LGT SNOW  33  33 100 W10       29.68F FOG     WCI  25
RICHFIELD      CLOUDY    28  30 100 NE5       29.81F FOG     WCI  23
ROOSEVELT      MIX PCPN  36  32  87 CALM      29.73F
VERNAL         LGT SNOW  34  32  92 NW5       29.72F FOG     WCI  30

$$

UTZ013>016-019>022-027-202100-

SOUTHERN UTAH

CITY           SKY/WX    TMP DP  RH WIND       PRES   REMARKS
BRYCE CANYON   FLURRIES  29  24  82 W6        29.73F WCI  23
CEDAR CITY     LGT SNOW  28  26  92 N8        29.79F FOG     WCI  20
MILFORD        LGT SNOW  29  25  85 N17       29.83S FOG     WCI  17
ST GEORGE      LGT RAIN  40  35  83 N6        29.83F
HANKSVILLE     CLOUDY    46  34  61 S21       29.70F
KANAB          PTSUNNY   39  37  93 SE7       29.81F WCI  34
BLANDING         N/A     44  26  49 SE15G22   29.83F

$$

REGIONAL REPORTS     COLORADO/ARIZONA

CITY           SKY/WX    TMP DP  RH WIND       PRES   REMARKS
CRAIG, CO      CLOUDY    33  29  85 E5        29.73F WCI  29
GRAND JUNCTION CLOUDY    48  33  56 N6        29.69F
RIFLE, CO      LGT RAIN  37  34  89 SW3       29.71F
MONTROSE, CO   CLOUDY    54  23  30 S20G30    29.72F
CORTEZ, CO     CLOUDY    48  19  31 SE18G25   29.78F
COLORADO CITY  CLOUDY    39  36  87 NW8       29.80F WCI  34
PAGE, AZ       CLOUDY    50  28  42 SW12G21   29.72F
GRAND CANYON   LGT SNOW  31  30  96 S13G22    29.80F VSB 1   WCI  21
KINGMAN, AZ    SUNNY     50  21  32 SW16G25   29.85F
FLAGSTAFF, AZ  SNOW      29  26  89 SW15      29.82F VSB 1/2 WCI  18

$$

REGIONAL REPORTS    NEVADA/IDAHO/WYOMING

CITY           SKY/WX    TMP DP  RH WIND       PRES   REMARKS
LAS VEGAS, NV  PTSUNNY   53  27  36 NW16G24   29.85F
ELY, NY        CLOUDY    23  18  81 N14       29.88F WCI  11
ELKO, NV       PTSUNNY   34  17  50 N10       29.96F WCI  26
POCATELLO, ID  PTSUNNY   33  22  63 W5        29.95F WCI  29
BURLEY, ID     MOSUNNY   34  24  67 W9        29.96F WCI  27
FORT BRIDGER,  LGT SNOW  25  25 100 N6        29.79F VSB 3/4 WCI  18
EVANSTON, WY   FOG       22  20  92 N14       29.76F VSB 1/2 WCI   9
ROCK SPRINGS,  LGT SNOW  26  22  84 NW6       29.75F FOG     WCI  19

$$




USA.gov is the U.S. government's official web portal to all federal, state and local government web resources and services.